Regional Weather Roundup
Issued by NWS

Home | Current Version | Previous Version | Text Only | Print | Product List | Glossary On
Versions: 1 2 3 4 5 6 7 8 9 10 11 12 13 14 15 16 17 18 19 20 21 22 23 24 25 26 27 28 29 30 31 32 33 34 35 36 37 38 39 40 41 42 43 44 45 46 47 48 49 50
000
ASUS45 KBOU 030907
RWRCO

WEATHER ROUNDUP FOR COLORADO
NATIONAL WEATHER SERVICE DENVER/BOULDER CO
300 AM MDT SUN MAY 03 2015

NOTE: "FAIR" INDICATES FEW OR NO CLOUDS BELOW 12000 FEET WITH NO
SIGNIFICANT WEATHER AND/OR OBSTRUCTIONS TO VISIBILITY.

COZ001>005-013-030-031-031000-
...NORTHWEST COLORADO...

CITY           SKY/WX    TMP DP  RH WIND       PRES   REMARKS
CRAIG          CLEAR     37  33  85 W5        30.02F
HAYDEN         CLEAR     41  34  75 E13       30.04S
MEEKER         MOCLDY    43  35  73 CALM      30.01S
MOUNT WERNER   NOT AVBL
STEAMBOAT SPGS CLEAR     37  33  85 CALM      30.06S
WALDEN         MOCLDY    34  30  86 SE6       30.11S WCI  29
$$

COZ006>008-011-031000-
...WEST CENTRAL VALLEYS...

CITY           SKY/WX    TMP DP  RH WIND       PRES   REMARKS
GRAND JUNCTION PTCLDY    59  36  42 E8        29.90F
MONTROSE       MOCLDY    59  30  33 E9        30.01R
EAGLE          PTCLDY    43  36  75 S5        30.11F
RIFLE          PTCLDY    50  37  61 NE6       30.00F
DELTA          PTCLDY    60  32  35 E8        29.96F
NUCLA          PTCLDY    61  28  29 CALM      30.05R
$$

COZ017>023-064>068-031000-
...SOUTHWEST COLORADO...

CITY           SKY/WX    TMP DP  RH WIND       PRES   REMARKS
DURANGO        PTCLDY    44  34  67 CALM      30.09F
CORTEZ         CLEAR     44  33  65 N3        30.04F
PAGOSA SPRINGS PTCLDY    40  32  73 CALM      30.16S
TELLURIDE      PTCLDY    46  27  47 SE3       30.20F
WOLF CREEK PAS NOT AVBL
$$

COZ009-010-012-014-032>034-037-058>063-031000-
...CENTRAL COLORADO...

CITY           SKY/WX    TMP DP  RH WIND       PRES   REMARKS
ASPEN          MOCLDY    38  33  82 CALM      30.11F
BUENA VISTA    NOT AVBL
COPPER MTN     PTCLDY    37  23  56 SW9       30.29F
BERTHOUD PASS  FAIR      30  21  69 NW31G38   30.27F WCI  15
COTTONWOOD PAS PTCLDY    41  32  70 N3        30.22S
GUNNISON       PTCLDY    37  27  65 CALM      30.17S
KREMMLING      PTCLDY    37  34  87 E7        30.12F
LEADVILLE      PTCLDY    30  28  92 CALM      30.21F
MONARCH PASS   PTCLDY    32  28  86 SW16      30.41S WCI  21
SALIDA         PTCLDY    45  38  77 N10       30.20F
SUNLIGHT       PTCLDY    41  28  60 CALM      30.27S
WILKERSON PASS PTCLDY    34  28  80 SW8       30.28S WCI  27
$$

COZ069>075-031000-
...SAN LUIS VALLEY/SANGRE DE CRISTO MOUNTAINS...

CITY           SKY/WX    TMP DP  RH WIND       PRES   REMARKS
ALAMOSA        MOCLDY    39  35  86 E3        30.12F
LA VETA PASS   CLOUDY    39  28  65 MISG      30.23S
SAGUACHE       PTCLDY    37  34  87 N7        30.16F
$$

COZ035-036-038>040-031000-
...NORTHERN COLORADO FRONT RANGE...

CITY           SKY/WX    TMP DP  RH WIND       PRES   REMARKS
DENVER INTL AP MOCLDY    53  38  56 SW16      29.93F
DMNS CITY PARK   N/A     53  38  57 S6        29.92F
AURORA         MOCLDY    50  39  66 SW12      29.95F
FRONT RANGE AP NOT AVBL
ERIE MUNI ARPT CLEAR     49  39  67 CALM      29.92F
BOULDER MUN AP CLEAR     55  32  41 W8        29.91F
CENTENNIAL     MOCLDY    55  36  48 SW13      29.95F
BROOMFIELD     CLEAR     52  36  54 W3        29.94S
FORT COLLINS   MOCLDY    54  39  58 N8        29.93R
LONGMONT       MOCLDY    50  38  63 CALM      29.93S
$$

COZ041-046-047-076>085-087-088-031000-
...PIKES PEAK/PALMER DIVIDE AND SOUTHERN FOOTHILLS...

CITY           SKY/WX    TMP DP  RH WIND       PRES   REMARKS
COLO. SPRINGS  MOCLDY    48  39  71 N6        30.01F
A. F. ACADEMY  MOCLDY    45  38  76 N5        30.02S
ELLICOTT       MOCLDY   N/A N/A N/A CALM      29.99F
FALCON         MOCLDY    46  36  69 W7        30.04S
FORT CARSON    MOCLDY    51  39  65 VRB5      29.97F
LIMON          PTCLDY    39  37  92 N7        29.94F
MONUMENT HILL  MOCLDY    46  36  66 SW13      30.02F
TRINIDAD       PTCLDY    46  38  73 W10       30.01S
$$

COZ042>045-048>051-090-091-031000-
...NORTHEAST COLORADO...

CITY           SKY/WX    TMP DP  RH WIND       PRES   REMARKS
GREELEY ARPT   PTCLDY    52  37  58 SW6       29.90F
AKRON          CLEAR     53  43  68 SW15      29.88F
BURLINGTON     PTCLDY    52  43  71 W10       29.86F
WRAY           PTCLDY    55  46  72 W9        29.84F
STERLING       CLEAR     50  45  81 E5        29.85S
HOLYOKE        NOT AVBL
FORT MORGAN    CLEAR     48 -16   6 W7        29.89S
$$

COZ086-089-092>099-031000-
...SOUTHEAST COLORADO...

CITY           SKY/WX    TMP DP  RH WIND       PRES   REMARKS
PUEBLO         MOCLDY    51  44  77 W3        29.94F
LA JUNTA       MOCLDY    52  43  71 MISG      29.90F
LAMAR          PTCLDY    51  47  86 SW8       29.86F
SPRINGFIELD      N/A     48  42  80 NW7       29.92F
$$



USA.gov is the U.S. government's official web portal to all federal, state and local government web resources and services.